Regional Weather Roundup
Issued by NWS

Home | Current Version | Previous Version | Graphics & Text | Print | Product List | Glossary On
Versions: 1 2 3 4 5 6 7 8 9 10 11 12 13 14 15 16 17 18 19 20 21 22 23 24 25 26 27 28 29 30 31 32 33 34 35 36 37 38 39 40 41 42 43 44 45 46 47 48 49 50
000
ASUS43 KOAX 201002
RWRNE

WEATHER ROUNDUP FOR NEBRASKA
NATIONAL WEATHER SERVICE OMAHA NE
400 AM CST MON NOV 20 2017

NOTES: SATELLITE DATA IS BEING USED TO AUGMENT CLOUD COVER ABOVE
       12000 FEET.
       "FAIR" INDICATES FEW OR NO CLOUDS BELOW 12,000 FEET WITH NO
       SIGNIFICANT WEATHER AND/OR OBSTRUCTIONS TO VISIBILITY.


NEZ001>004-019>022-054>056-201100-
NEBRASKA PANHANDLE

CITY           SKY/WX    TMP DP  RH WIND       PRES   REMARKS
SCOTTSBLUFF    CLOUDY    44   9  23 W9        29.79R
ALLIANCE       CLOUDY    38  13  35 W15       29.74F WCI  29
CHADRON        CLOUDY    29  18  63 SW7       29.72F WCI  22
GORDON         FAIR      30  17  56 W7        29.70F WCI  23
KIMBALL        CLOUDY    43   7  22 W17       29.82S
SIDNEY         CLOUDY    26  14  60 W10       29.81F WCI  16
$$

NEZ057>060-069>072-079>082-201100-
SOUTHWEST NEBRASKA

CITY           SKY/WX    TMP DP  RH WIND       PRES   REMARKS
NORTH PLATTE   CLOUDY    23  18  81 NW3       29.79F
IMPERIAL       CLOUDY    25  16  68 W7        29.81F WCI  17
LEXINGTON      CLOUDY    31  21  66 W7        29.78F WCI  24
MCCOOK         CLOUDY    30  22  72 W12       29.81F WCI  20
OGALLALA       CLOUDY    25  19  78 SW7       29.79F WCI  17
$$

NEZ005>010-023>029-035>040-094-201100-
NORTH CENTRAL NEBRASKA

CITY           SKY/WX    TMP DP  RH WIND       PRES   REMARKS
VALENTINE      CLOUDY    34  18  52 W12       29.67F WCI  25
AINSWORTH      CLOUDY    35  18  50 SW8       29.68F WCI  29
BROKEN BOW     CLOUDY    32  22  66 W10       29.73F WCI  24
O`NEILL        CLEAR     32  23  69 SW8       29.68F WCI  25
ORD            CLOUDY    34  23  64 SW6       29.71F WCI  29
THEDFORD       CLOUDY    38  16  41 W13       29.73F WCI  30
$$

NEZ041-046>049-061>064-073>077-083>087-201100-
SOUTH CENTRAL NEBRASKA

CITY           SKY/WX    TMP DP  RH WIND       PRES   REMARKS
GRAND ISLAND   CLOUDY    36  27  69 SW12      29.78F WCI  28
AURORA         CLOUDY    32  25  74 SW12      29.79S WCI  23
HASTINGS       CLOUDY    35  24  64 SW8       29.80F WCI  29
HEBRON         CLOUDY    41  23  48 SW13G21   29.83F
HOLDREGE       CLOUDY    37  24  60 SW9       29.79F WCI  30
KEARNEY        CLOUDY    34  25  69 SW8       29.79F WCI  27
YORK           CLOUDY    30  25  80 CALM      29.80S
$$

NEZ011>018-030>034-042>045-201100-
NORTHEAST NEBRASKA

CITY           SKY/WX    TMP DP  RH WIND       PRES   REMARKS
NORFOLK        CLEAR     32  25  75 SW8       29.73F WCI  25
ALBION         CLOUDY    32  25  75 SE6       29.74F WCI  26
COLUMBUS       CLOUDY    29  24  82 SW5       29.78F WCI  24
FREMONT        CLOUDY    38  25  58 S8        29.78F WCI  32
TEKAMAH        CLEAR     35  25  66 S12       29.78F WCI  27
WAYNE          CLEAR     32  25  73 SW12      29.72F WCI  23
$$

NEZ050>053-065>068-078-088>093-201100-
SOUTHEAST NEBRASKA

CITY           SKY/WX    TMP DP  RH WIND       PRES   REMARKS
LINCOLN        CLOUDY    36  24  62 S3        29.83F
OMAHA EPPLEY   CLOUDY    34  25  69 SE13      29.82F WCI  25
BEATRICE       CLOUDY    40  25  55 S9        29.84F WCI  34
FALLS CITY     CLOUDY    41  26  55 S8        29.89F
NEBRASKA CITY  CLOUDY    37  28  68 S10       29.84F WCI  30
PLATTSMOUTH    PTCLDY    39  28  64 S12       29.82F WCI  31
$$

NEZ044-045-051>053-067-201100-
OMAHA AREA

CITY           SKY/WX    TMP DP  RH WIND       PRES   REMARKS
OMAHA EPPLEY   CLOUDY    34  25  69 SE13      29.82F WCI  25
FREMONT        CLOUDY    38  25  58 S8        29.78F WCI  32
MILLARD        CLOUDY    36  27  69 SE6       29.81F WCI  31
OFFUTT AFB     CLOUDY    31  25  80 E5        29.82F WCI  26
PLATTSMOUTH    PTCLDY    39  28  64 S12       29.82F WCI  31
WAHOO          FAIR      33  24  70 S8        29.80F WCI  26
$$




USA.gov is the U.S. government's official web portal to all federal, state and local government web resources and services.